Weather observations for the past three days for
Rochelle, Rochelle Municipal-Koritz Field Airport
Metric (Imperial)
Date Time (cdt) Wind (kph) Vis. (km) Weather Sky Cond. Temperature (ºC) Relative Humidity Wind Chill (°C) Heat Index (°C) Pressure Precipitation (cm)
Air Dwpt 6 hour altimeter (cm) sea level (mb) 1 hr 3 hr 6 hr
Max. Min.
05 12:55 NE 11 16.09 Partly Cloudy SCT018 28.3 22.3 28.3 20.8 70% 31 76.2 0.0
05 12:35 NE 19 16.09 Partly Cloudy SCT016 27.7 22.3 72% 30 76.2 0.0
05 12:15 NE 19 16.09 Partly Cloudy SCT016 27.6 22.6 74% 30 76.2 0.0
05 11:55 NE 11 16.09 Partly Cloudy SCT013 27.5 22.8 76% 30 76.2 0.0
05 11:35 NE 13 16.09 Partly Cloudy SCT013 27 22.7 77% 29 76.2 0.0
05 11:15 N 15 16.09 Partly Cloudy SCT013 26.6 22.6 79% 29 76.2 0.0
05 10:55 N 15 16.09 Partly Cloudy SCT013 26.5 22.8 80% 29 76.2 0.0
05 10:35 N 17 16.09 Fair CLR 26.6 22.7 79% 29 76.2 0.0
05 10:15 NE 13 16.09 Fair CLR 26.7 22.9 80% 29 76.17 0.0
05 09:55 N 13 16.09 Fair CLR 26.7 23 80% 29 76.15 0.0
05 09:35 NE 13 16.09 Fair CLR 26.5 22.7 80% 29 76.12 0.0
05 09:15 NE 20 16.09 Fair CLR 25.5 22.6 84% 27 76.12 0.0
05 08:55 NE 15 11.27 Fair CLR 25 22.7 87% 26 76.12 0.0
05 08:35 NE 17 11.27 Fair CLR 24.3 22.7 91% 24 76.12 0.0
05 08:15 NE 11 11.27 Partly Cloudy SCT037 23.8 22.8 94% 76.1 0.0
05 07:55 N 7 11.27 Partly Cloudy SCT037 23.5 22.5 94% 76.12 0.0
05 07:35 N 9 6.44 Fog/Mist BKN003 23.3 22.3 94% 76.1 0.0
05 07:15 N 9 6.44 Fog/Mist BKN003 22.1 21.2 95% 76.05 0.0
05 06:55 Calm 4.83 Fog/Mist CLR 20.7 19.8 23.2 20.5 95% 76.05 0.0
05 06:30 Calm 6.44 Fog/Mist SCT005 21 20 94% 76.05 0.0
05 06:15 Calm 8.05 Fog/Mist SCT005 20.8 19.9 95% 76.02 0.0
05 05:55 Calm 8.05 Fog/Mist CLR 21 20 94% 76 0.0
05 05:35 Calm 11.27 Fair CLR 21.3 20.3 94% 76 0.0
05 05:15 Calm 11.27 Fair CLR 21.7 20.7 94% 76 0.0
05 04:55 Calm 11.27 Fair CLR 22 21 94% 76.02 0.0
05 04:35 Calm 11.27 Partly Cloudy SCT120 22.1 21.1 94% 76 0.0
05 04:15 Calm 11.27 Partly Cloudy SCT120 22.2 21.2 94% 76 0.0
05 03:55 Calm 11.27 Partly Cloudy SCT050 22.3 21.3 94% 76.02 0.0
05 03:35 SW 7 11.27 Partly Cloudy SCT050 SCT110 22.5 21.5 94% 76.02 0.0
05 03:15 Calm 11.27 Mostly Cloudy BKN110 22.9 21.9 94% 76 0.0
05 02:55 Calm 16.09 Partly Cloudy SCT110 22.7 21.7 94% 76.02 0.0
05 02:35 Calm 16.09 Partly Cloudy SCT110 22.7 21.7 94% 76.02 0.0
05 02:15 Calm 16.09 Partly Cloudy SCT110 22.3 21.3 94% 76.02 0.0
05 01:55 Calm 16.09 Fair CLR 22.5 21.5 94% 76.02 0.0
05 01:35 Calm 11.27 Fair CLR 22.8 21.8 94% 76.02 0.0
05 01:15 Calm 16.09 Fair CLR 22.8 21.8 94% 76.05 0.0
05 00:55 Calm 16.09 Fair CLR 23.4 22.4 29.9 22.8 94% 76.05 0.0
05 00:35 Calm 16.09 Fair CLR 23 22.1 95% 76.05 0.0
05 00:15 Calm 11.27 Fair CLR 23 22.1 95% 76.02 0.0
04 23:55 Calm 11.27 Fair CLR 23.4 22.4 94% 76 0.0
04 23:35 Calm 11.27 Fair CLR 23.8 22.8 94% 76.02 0.0
04 23:15 Calm 16.09 Fair CLR 24.1 23.1 94% 23 76.02 0.0
04 22:55 S 7 16.09 Partly Cloudy SCT120 24.5 23.5 94% 24 76.02 0.0
04 22:35 Calm 16.09 Partly Cloudy SCT120 24.5 23.5 94% 24 76.05 0.0
04 22:15 Calm 16.09 Fair CLR 24.7 23.7 94% 25 76.07 0.0
04 21:55 Calm 16.09 Partly Cloudy SCT055 SCT065 25.3 23.8 91% 26 76.05 0.0
04 21:35 Calm 16.09 Partly Cloudy SCT055 SCT065 25.3 24 93% 26 76.07 0.0
04 21:15 Calm 16.09 Fair CLR 25.6 24.5 94% 27 76.07 0.0
04 20:55 Calm 16.09 Fair CLR 25.5 24.5 94% 27 76.05 0.0
04 20:35 Calm 16.09 Fair CLR 25.7 24.6 94% 27 76 0.0
04 20:15 SW 6 16.09 Fair CLR 26.5 24.8 90% 29 75.97 0.0
04 19:55 SW 9 16.09 Fair CLR 27.1 25.2 89% 31 75.97 0.0
04 19:35 SW 7 16.09 Fair CLR 27.6 25.2 87% 32 75.97 0.0
04 19:15 SW 7 16.09 Fair CLR 29 24.6 77% 34 75.97 0.0
04 18:55 SW 6 16.09 Fair CLR 30 24.6 32.7 30 73% 36 75.97 0.0
04 18:35 S 6 16.09 Fair CLR 31 24.7 69% 37 75.97 0.0
04 18:15 S 7 16.09 Fair CLR 31.2 24.4 67% 37 75.95 0.0
04 17:55 S 7 16.09 Fair CLR 31.8 23.9 63% 38 75.95 0.0
04 17:35 S 9 16.09 Fair CLR 32.1 23.5 60% 37 75.97 0.0
04 17:15 S 13 16.09 Fair CLR 32.3 23.5 60% 38 75.97 0.0
04 16:55 S 15 16.09 Fair CLR 32.5 23.1 58% 38 75.97 0.0
04 16:35 S 11 16.09 Fair CLR 32.5 23 57% 37 76 0.0
04 16:15 S 20 16.09 Fair CLR 32.6 23.1 57% 38 75.97 0.0
04 15:55 S 17 16.09 Fair CLR 32.2 24 62% 38 75.97 0.0
04 15:35 S 15 16.09 Fair CLR 32.5 23.3 58% 38 76 0.0
04 15:15 S 15 16.09 Fair CLR 32.5 23.1 58% 38 76 0.0
04 14:55 S 13 16.09 Fair CLR 32.1 23.5 60% 37 76.05 0.0
04 14:35 SE 17 16.09 Fair CLR 31.7 23.4 61% 37 76.07 0.0
04 14:15 SE 15 16.09 Fair CLR 31.5 23.2 61% 36 76.1 0.0
04 13:55 SE 17 16.09 Fair CLR 31 22.8 62% 35 76.1 0.0
04 13:35 SE 17 16.09 Fair CLR 31 23.1 63% 36 76.12 0.0
04 13:15 SE 17 G 28 16.09 Fair CLR 30.5 22.8 63% 35 76.12 0.0
04 12:55 SE 20 G 28 16.09 Fair CLR 30.3 23.1 30.6 21.5 65% 35 76.15 0.0
04 12:35 E 19 G 26 16.09 Fair CLR 30.1 23.1 66% 34 76.15 0.0
04 12:15 E 19 16.09 Fair CLR 29.8 22.8 66% 34 76.15 0.0
04 11:55 E 19 G 26 16.09 Partly Cloudy SCT110 29.6 23 68% 34 76.17 0.0
04 11:35 NE 22 16.09 Mostly Cloudy SCT075 BKN110 28.9 23 71% 33 76.23 0.0
04 11:15 NE 24 16.09 Mostly Cloudy SCT075 BKN095 29.4 22.5 66% 33 76.2 0.0
04 10:55 NE 11 16.09 Overcast BKN075 BKN095 OVC110 29.2 22.2 66% 32 76.2 0.0
04 10:35 N 7 16.09 Overcast BKN075 BKN085 OVC110 29.4 22.1 65% 33 76.17 0.0
04 10:15 W 9 16.09 Partly Cloudy SCT110 29.6 21.5 62% 32 76.12 0.0
04 09:55 SW 11 16.09 Partly Cloudy SCT120 29.2 21.9 65% 32 76.1 0.0
04 09:35 SW 11 16.09 Fair CLR 29.2 22.2 66% 32 76.1 0.0
04 09:15 SW 9 16.09 Fair CLR 28.4 21.8 67% 31 76.1 0.0
04 08:55 SW 7 16.09 Fair CLR 27.7 22.2 72% 30 76.07 0.0
04 08:35 SW 11 16.09 Fair CLR 26.9 21.6 73% 29 76.07 0.0
04 08:15 W 7 16.09 Fair CLR 25.9 22.2 80% 27 76.07 0.0
04 07:55 Calm 16.09 Fair CLR 24.4 22 87% 25 76.05 0.0
04 07:35 Calm 16.09 Fair CLR 23.5 22 91% 76.02 0.0
04 07:15 Calm 16.09 Fair CLR 22.1 21.1 94% 76 0.0
04 06:55 SW 6 16.09 Fair CLR 21.5 20.5 22.7 21.2 94% 76 0.0
04 06:35 SW 6 16.09 Fair CLR 21.5 20.5 94% 76 0.0
04 06:15 Calm 16.09 Fair CLR 21.7 20.7 94% 76 0.0
04 05:55 S 6 16.09 Fair CLR 21.8 20.8 94% 76 0.0
04 05:35 S 6 16.09 Fair CLR 22 21 94% 76 0.0
04 05:15 SW 6 16.09 Fair CLR 21.8 20.8 94% 76 0.0
04 04:55 S 7 16.09 Partly Cloudy SCT110 22 21 94% 76 0.0
04 04:35 S 7 16.09 Mostly Cloudy BKN110 22.3 21.4 95% 76.02 0.0
04 04:15 Calm 16.09 Overcast OVC110 22.5 21.5 94% 76.02 0.0
04 03:55 SE 6 16.09 Overcast OVC110 22.5 21.5 94% 76.02 0.0
04 03:35 E 7 16.09 Partly Cloudy SCT110 22.2 21.2 94% 76.02 0.0
04 03:15 Calm 16.09 Fair CLR 22.7 21.7 94% 76 0.0
04 02:55 Calm 16.09 Fair CLR 22.1 21.1 94% 75.97 0.0
04 02:35 S 6 16.09 Fair CLR 22.7 21.7 94% 75.97 0.0
04 02:15 Calm 16.09 Fair CLR 22.7 21.7 94% 75.97 0.0
04 01:55 S 7 16.09 Fair CLR 22.2 21.3 95% 76 0.0
04 01:35 Calm 11.27 Fair CLR 21.9 20.9 94% 76.02 0.0
04 01:15 SE 6 11.27 Fair CLR 22.2 21.2 94% 76.05 0.0
04 00:55 Calm 16.09 Fair CLR 22.6 21.6 28.8 22.6 94% 76.05 0.0
04 00:35 SE 6 11.27 Fair CLR 22.8 21.8 94% 76.05 0.0
04 00:15 Calm 11.27 Fair CLR 22.6 21.6 94% 76.05 0.0
03 23:55 Calm 11.27 Fair CLR 23.1 22.1 94% 76.05 0.0
03 23:35 SE 6 16.09 Fair CLR 23.7 22.7 94% 76.05 0.0
03 23:15 S 7 16.09 Fair CLR 23.5 22.5 94% 76.05 0.0
03 22:55 Calm 11.27 Fair CLR 23.5 22.5 94% 76.05 0.0
03 22:35 Calm 11.27 Fair CLR 23.7 22.7 94% 76.05 0.0
03 22:15 Calm 16.09 Fair CLR 24.1 23.1 94% 23 76.05 0.0
03 21:55 SE 6 16.09 Fair CLR 24.6 23.5 94% 25 76.05 0.0
03 21:35 E 6 16.09 Fair CLR 24.7 23.5 93% 25 76.05 0.0
03 21:15 Calm 16.09 Fair CLR 25.2 23.8 92% 26 76.05 0.0
03 20:55 Calm 16.09 Fair CLR 24.9 23.5 92% 25 76.02 0.0
03 20:35 Calm 16.09 Fair CLR 25.7 24 90% 27 76.02 0.0
03 20:15 Calm 16.09 Fair CLR 26.2 24.1 88% 28 76 0.0
03 19:55 Calm 16.09 Fair CLR 26 24 89% 28 75.97 0.0
03 19:35 Calm 16.09 Fair CLR 26.4 24.3 88% 29 75.95 0.0
03 19:15 SE 6 16.09 Fair CLR 28 24 79% 32 75.92 0.0
03 18:55 SE 9 16.09 Fair CLR 28.9 23.8 31.8 28.9 74% 33 75.9 0.0
03 18:35 S 11 16.09 Fair CLR 29.8 23.8 70% 35 75.9 0.0
03 18:15 S 9 16.09 Fair CLR 30.6 23.2 65% 35 75.95 0.0
03 17:55 S 7 16.09 Fair CLR 31 23.1 63% 36 75.95 0.0
03 17:35 S 13 16.09 Fair CLR 31.3 22.4 59% 35 75.97 0.0
03 17:15 S 11 16.09 Fair CLR 31.7 22.7 59% 36 75.97 0.0
03 16:55 S 11 16.09 Fair CLR 31.8 22.4 57% 36 76 0.0
03 16:35 S 11 16.09 Fair CLR 31.8 21.7 55% 35 76 0.0
03 16:15 S 11 16.09 Fair CLR 31.6 22.2 57% 35 76.02 0.0
03 15:55 S 13 16.09 Fair CLR 31.6 22.2 57% 35 76.02 0.0
03 15:35 S 11 16.09 Fair CLR 31.5 21.9 57% 35 76.02 0.0
03 15:15 S 11 16.09 Fair CLR 31.2 21.8 57% 35 76.02 0.0
03 14:55 SE 7 16.09 Fair CLR 30.8 22 59% 34 76.05 0.0
03 14:35 SE 15 16.09 Fair CLR 30.4 22.1 61% 34 76.07 0.0
03 14:15 SE 9 16.09 Fair CLR 30.2 21.6 60% 33 76.1 0.0
03 13:55 SE 13 16.09 Fair CLR 30 21.5 60% 33 76.1 0.0
03 13:35 E 9 16.09 Fair CLR 29.5 20.9 60% 32 76.12 0.0
03 13:15 E 11 16.09 Fair CLR 29.1 21 62% 31 76.12 0.0
03 12:55 E 13 16.09 Fair CLR 28.8 20.9 29.4 22.1 62% 31 76.12 0.0
03 12:35 E 15 16.09 Fair CLR 28 20.3 63% 30 76.15 0.0
03 12:15 E 13 16.09 Partly Cloudy SCT090 SCT120 26.5 20.4 69% 28 76.15 0.0
03 11:55 NE 19 16.09 Mostly Cloudy BKN090 BKN120 27 20.6 68% 29 76.15 0.0
03 11:35 NE 20 16.09 Mostly Cloudy BKN080 27.5 21.2 69% 30 76.17 0.0
03 11:15 NE 19 16.09 Partly Cloudy SCT080 SCT100 28.5 21.9 68% 31 76.17 0.0
03 10:55 NE 13 16.09 Partly Cloudy SCT100 28 22 70% 31 76.17 0.0
03 10:35 N 13 16.09 Mostly Cloudy SCT028 SCT080 BKN100 27.4 22.3 74% 30 76.15 0.0
03 10:15 N 24 G 33 16.09 Mostly Cloudy BKN080 BKN110 28.2 21.4 67% 31 76.15 0.0
03 09:55 W 11 16.09 Mostly Cloudy BKN110 28.9 21.9 66% 32 76.1 0.0
03 09:35 W 9 16.09 Mostly Cloudy BKN110 28.3 23 73% 32 76.1 0.0
03 09:15 SW 7 16.09 Mostly Cloudy BKN110 26.6 22.8 80% 29 76.07 0.0
03 08:55 SW 7 16.09 Light Rain SCT039 SCT060 BKN110 26.7 22.7 79% 29 76.07 0.0
03 08:35 S 7 16.09 Partly Cloudy SCT110 25.1 22.8 87% 26 76.07 0.0
03 08:15 Calm 16.09 Overcast OVC100 24.5 22.5 89% 25 76.07 0.0
03 07:55 S 6 16.09 Partly Cloudy SCT100 23.8 22.5 92% 76.07 0.0
03 07:35 S 6 16.09 Fair CLR 22.6 21.6 94% 76.07 0.0
03 07:15 Calm 16.09 Fair CLR 22.5 21.5 94% 76.07 0.0
03 06:55 Calm 11.27 Fair CLR 22.1 21.1 23.1 21.4 94% 76.07 0.0
03 06:35 Calm 11.27 Fair CLR 21.6 20.7 95% 76.07 0.0
03 06:15 S 6 16.09 Fair CLR 22.1 21.2 95% 76.05 0.0
03 05:55 Calm 16.09 Fair CLR 22 21 94% 76.05 0.0
03 05:35 Calm 16.09 Fair CLR 22 21 94% 76.05 0.0
03 05:15 S 6 16.09 Fair CLR 22.5 21.5 94% 76.05 0.0
03 04:55 S 7 16.09 Fair CLR 22.1 21.1 94% 76.07 0.0
03 04:35 Calm 16.09 Fair CLR 21.8 20.8 94% 76.05 0.0
03 04:15 Calm 16.09 Fair CLR 21.6 20.6 94% 76.05 0.0
03 03:55 Calm 16.09 Fair CLR 21.6 20.6 94% 76.05 0.0
03 03:35 Calm 16.09 Fair CLR 21.7 20.7 94% 76.05 0.0
03 03:15 Calm 16.09 Fair CLR 22 21.1 95% 76.05 0.0
03 02:55 Calm 16.09 Fair CLR 22.5 21.6 95% 76.05 0.0
03 02:35 Calm 16.09 Fair CLR 22.1 21.1 94% 76.05 0.0
03 02:15 Calm 16.09 Fair CLR 22.6 21.6 94% 76.05 0.0
03 01:55 Calm 16.09 Fair CLR 22.7 21.8 95% 76.05 0.0
03 01:35 Calm 16.09 Partly Cloudy SCT120 22.7 21.7 94% 76.05 0.0
03 01:15 Calm 16.09 Partly Cloudy SCT110 23 22.1 95% 76.05 0.0
03 00:55 Calm 11.27 Partly Cloudy SCT110 22.8 21.9 28.7 22.7 95% 76.05 0.0
03 00:35 Calm 11.27 Partly Cloudy SCT110 23 22.1 95% 76.05 0.0
03 00:15 Calm 11.27 Mostly Cloudy BKN110 23.2 22.2 94% 76.05 0.0
02 23:55 Calm 11.27 Mostly Cloudy BKN110 23.3 22.3 94% 76.05 0.0
02 23:35 Calm 11.27 Mostly Cloudy BKN110 23.2 22.2 94% 76.05 0.0
02 23:15 Calm 11.27 Fair CLR 23.3 22.3 94% 76.05 0.0
02 22:55 Calm 11.27 Fair CLR 23.5 22.5 94% 76.05 0.0
02 22:35 Calm 11.27 Fair CLR 23.5 22.5 94% 76.05 0.0
02 22:15 Calm 16.09 Fair CLR 24.1 23.1 94% 23 76.05 0.0
02 21:55 Calm 16.09 Fair CLR 24.2 23.2 94% 24 76.05 0.0
02 21:35 Calm 16.09 Fair CLR 24.2 23.2 94% 24 76.05 0.0
02 21:15 Calm 11.27 Fair CLR 24.5 23.5 94% 24 76.02 0.0
02 20:55 Calm 16.09 Fair CLR 25 23.7 93% 26 76 0.0
02 20:35 S 7 16.09 Fair CLR 25.4 24 92% 27 76 0.0
02 20:15 S 7 16.09 Fair CLR 25.7 24.1 91% 27 76 0.0
02 19:55 S 7 16.09 Fair CLR 26.7 23.8 84% 29 75.97 0.0
02 19:35 S 9 16.09 Fair CLR 27.5 23.8 80% 31 75.97 0.0
02 19:15 S 11 16.09 Fair CLR 28.3 23.6 76% 32 75.95 0.0
02 18:55 S 11 16.09 Fair CLR 28.9 23.7 33.8 28.9 74% 33 75.97 0.0
02 18:35 S 11 16.09 Fair CLR 30.4 23.6 67% 35 75.97 0.0
02 18:15 S 9 16.09 Fair CLR 31.5 23.6 63% 37 75.97 0.0
02 17:55 SW 11 16.09 Fair CLR 32.1 23.2 59% 37 76 0.0
02 17:35 SW 9 16.09 Fair CLR 32.5 23 57% 37 76 0.0
02 17:15 SW 13 16.09 Fair CLR 33 22.7 55% 38 76 0.0
02 16:55 SW 17 16.09 Fair CLR 32.8 22.8 56% 38 76 0.0
02 16:35 SW 11 16.09 Fair CLR 32.5 22.4 55% 37 76.02 0.0
02 16:15 SW 15 16.09 Fair CLR 33.2 21.3 50% 37 76.02 0.0
02 15:55 SW 15 16.09 Fair CLR 33.8 21.5 49% 37 76.02 0.0
02 15:35 SW 15 16.09 Fair CLR 33.8 21.4 48% 37 76.02 0.0
Date Time (cdt) Wind (kph) Vis. (km) Weather Sky Cond. Air Dwpt Max. Min. Relative Humidity Wind Chill (°C) Heat Index (°C) altimeter (cm) sea level (mb) 1 hr 3 hr 6 hr
6 hour
Temperature (ºC) Pressure Precipitation (cm)